TimePDT,TemperatureF,Dew PointF,Humidity,Sea Level PressureIn,VisibilityMPH,Wind Direction,Wind SpeedMPH,Gust SpeedMPH,PrecipitationIn,Events,Conditions,WindDirDegrees,DateUTC
12:53 AM,55.0,45.0,69,29.99,8.0,East,3.5,-,N/A,,Clear,100,2012-10-28 07:53:00
1:53 AM,55.0,45.0,69,29.99,9.0,Calm,Calm,-,N/A,,Clear,0,2012-10-28 08:53:00
2:53 AM,54.0,45.0,72,29.99,9.0,Calm,Calm,-,N/A,,Clear,0,2012-10-28 09:53:00
3:53 AM,54.0,45.0,72,29.98,10.0,Calm,Calm,-,N/A,,Clear,0,2012-10-28 10:53:00
4:53 AM,54.0,44.1,69,29.98,10.0,Calm,Calm,-,N/A,,Clear,0,2012-10-28 11:53:00
5:53 AM,50.0,43.0,77,29.98,10.0,ESE,3.5,-,N/A,,Clear,110,2012-10-28 12:53:00
6:53 AM,52.0,43.0,71,29.98,10.0,Calm,Calm,-,N/A,,Clear,0,2012-10-28 13:53:00
7:53 AM,50.0,43.0,77,29.99,10.0,SE,3.5,-,N/A,,Clear,140,2012-10-28 14:53:00
8:53 AM,57.0,45.0,64,30.01,10.0,SE,4.6,-,N/A,,Clear,130,2012-10-28 15:53:00
10:53 AM,68.0,48.9,50,30.01,7.0,SSE,4.6,-,N/A,,Clear,160,2012-10-28 17:53:00
11:53 AM,72.0,48.0,43,30.00,7.0,Variable,3.5,-,N/A,,Clear,0,2012-10-28 18:53:00
12:53 PM,77.0,48.0,36,29.98,8.0,Variable,3.5,-,N/A,,Clear,0,2012-10-28 19:53:00
1:53 PM,78.1,46.9,33,29.95,10.0,Calm,Calm,-,N/A,,Clear,0,2012-10-28 20:53:00
2:53 PM,80.1,46.9,31,29.93,9.0,Calm,Calm,-,N/A,,Clear,0,2012-10-28 21:53:00
3:53 PM,80.1,46.9,31,29.93,10.0,Calm,Calm,-,N/A,,Clear,0,2012-10-28 22:53:00
4:53 PM,81.0,46.9,30,29.93,10.0,NW,4.6,-,N/A,,Clear,310,2012-10-28 23:53:00
5:53 PM,78.1,48.0,35,29.94,9.0,WNW,3.5,-,N/A,,Clear,290,2012-10-29 00:53:00
6:53 PM,72.0,48.0,43,29.95,10.0,North,-9999.0,-,N/A,,Clear,0,2012-10-29 01:53:00
8:53 PM,63.0,45.0,52,29.97,5.0,Calm,Calm,-,N/A,,Haze,0,2012-10-29 03:53:00
9:53 PM,59.0,46.0,62,29.99,9.0,Calm,Calm,-,N/A,,Clear,0,2012-10-29 04:53:00
10:53 PM,57.9,46.0,65,30.01,8.0,East,3.5,-,N/A,,Clear,100,2012-10-29 05:53:00
11:53 PM,57.9,46.0,65,30.01,8.0,Calm,Calm,-,N/A,,Clear,0,2012-10-29 06:53:00